LNG Imo — ZCDT6 — position and weather

sailwx.info

Track history (hours):
 
Tides and Currents Weather Stations Pressure Air Temp Water Temp Dewpoint Dewpoint Depression Visibility Wind Speed Wind Dir Waves Ship Positions

LNG Imo

Last reported at 2014-Aug-30 02:09 UTC. Time now 2014-Aug-30 16:31 UTC.
Position N 39°56' E 025°58'.

Length 288 m; draft 11.3 m.

Type: Ship (hazmat cat A). MMSI: 310565000.

Date/timePositionNaut miles runAvg speedWind from/ knotsBaromVisibWave heightAir tempDewpointWater temp
2014-Aug-30 02:09N 39°56' E 025°58'7 8.8
2014-Aug-30 01:21N 39°51' E 025°51'7 8.9
2014-Aug-30 00:31N 39°46' E 025°45'12116.7
2014-Aug-29 17:17N 37°57' E 024°38'1215.7
2014-Aug-29 16:32N 37°46' E 024°33'1616.1
2014-Aug-29 15:33N 37°32' E 024°23'1917.7
2014-Aug-29 14:30N 37°16' E 024°10'1717.4
2014-Aug-29 13:33N 37°00' E 024°06'1717.1
2014-Aug-29 12:33N 36°44' E 023°58'43416.7
2014-Aug-28 10:34N 36°22' E 014°58'1717.4
2014-Aug-28 09:34N 36°22' E 014°37'1717.4
2014-Aug-28 08:34N 36°25' E 014°15'1817.5
2014-Aug-28 07:34N 36°26' E 013°54'1717.3
2014-Aug-28 06:34N 36°26' E 013°32'1818.0
2014-Aug-28 05:34N 36°33' E 013°11'1817.7
2014-Aug-28 04:34N 36°39' E 012°50'1717.4
2014-Aug-28 03:34N 36°45' E 012°30'1817.7
2014-Aug-28 02:34N 36°52' E 012°10'1817.5
2014-Aug-28 01:33N 37°00' E 011°50'2617.9
2014-Aug-28 00:05N 37°15' E 011°23'1717.5
2014-Aug-27 23:07N 37°24' E 011°05'1017.4
2014-Aug-27 22:33N 37°27' E 010°53'1717.4
2014-Aug-27 21:33N 37°31' E 010°32'1817.7
2014-Aug-27 20:34N 37°34' E 010°10'1817.9
2014-Aug-27 19:34N 37°32' E 009°48'1817.9
2014-Aug-27 18:34N 37°27' E 009°26'1817.9
2014-Aug-27 17:34N 37°23' E 009°04'1817.9
2014-Aug-27 16:33N 37°18' E 008°42'1817.7
2014-Aug-27 15:33N 37°16' E 008°20'1817.9
2014-Aug-27 14:33N 37°16' E 007°58'1717.2
2014-Aug-27 13:33N 37°16' E 007°36'1717.4
2014-Aug-27 12:33N 37°16' E 007°14'1817.9
2014-Aug-27 11:33N 37°16' E 006°51'2118.3
2014-Aug-27 10:25N 37°15' E 006°25'7417.8
2014-Aug-27 06:15N 37°16' E 004°52'1318.3
2014-Aug-27 05:33N 37°15' E 004°36'4518.3
2014-Aug-27 03:07N 37°11' E 003°40'3318.7
2014-Aug-27 01:22N 37°07' E 002°60'1519.1
2014-Aug-27 00:33N 37°04' E 002°40'1918.6
2014-Aug-26 23:33N 37°01' E 002°17'1818.2
2014-Aug-26 22:33N 36°57' E 001°55'1818.3
2014-Aug-26 21:34N 36°54' E 001°33'1818.3
2014-Aug-26 20:33N 36°51' E 001°10'1918.7
2014-Aug-26 19:33N 36°47' E 000°47'1918.8
2014-Aug-26 18:33N 36°42' E 000°24'1818.1
2014-Aug-26 17:32N 36°41' E 000°02'1818.2
2014-Aug-26 16:33N 36°38' W 000°20'1818.2
2014-Aug-26 15:33N 36°34' W 000°43'1818.2
2014-Aug-26 14:33N 36°31' W 001°05'1818.4
2014-Aug-26 13:33N 36°27' W 001°28'1918.4
2014-Aug-26 12:32N 36°24' W 001°50'16719.6
2014-Aug-26 04:03N 35°59' W 005°15'8618.2
2014-Aug-25 23:18N 35°24' W 006°52'1318.1
2014-Aug-25 22:34N 35°15' W 007°04'16518.3
2014-Aug-25 13:33N 33°18' W 009°24'13118.3
2014-Aug-25 06:24N 31°44' W 011°13'  
Track history (hours):
 
Tides and Currents Weather Stations Pressure Air Temp Water Temp Dewpoint Dewpoint Depression Visibility Wind Speed Wind Dir Waves Ship Positions

LNG Imo

Last reported at 2014-Aug-30 02:09 UTC. Time now 2014-Aug-30 16:31 UTC.
Position N 39°56' E 025°58'.

Length 288 m; draft 11.3 m.

Type: Ship (hazmat cat A). MMSI: 310565000.

Date/timePositionNaut miles runAvg speedWind from/ knotsBaromVisibWave heightAir tempDewpointWater temp
2014-Aug-30 02:09N 39°56' E 025°58'7 8.8
2014-Aug-30 01:21N 39°51' E 025°51'7 8.9
2014-Aug-30 00:31N 39°46' E 025°45'12116.7
2014-Aug-29 17:17N 37°57' E 024°38'1215.7
2014-Aug-29 16:32N 37°46' E 024°33'1616.1
2014-Aug-29 15:33N 37°32' E 024°23'1917.7
2014-Aug-29 14:30N 37°16' E 024°10'1717.4
2014-Aug-29 13:33N 37°00' E 024°06'1717.1
2014-Aug-29 12:33N 36°44' E 023°58'43416.7
2014-Aug-28 10:34N 36°22' E 014°58'1717.4
2014-Aug-28 09:34N 36°22' E 014°37'1717.4
2014-Aug-28 08:34N 36°25' E 014°15'1817.5
2014-Aug-28 07:34N 36°26' E 013°54'1717.3
2014-Aug-28 06:34N 36°26' E 013°32'1818.0
2014-Aug-28 05:34N 36°33' E 013°11'1817.7
2014-Aug-28 04:34N 36°39' E 012°50'1717.4
2014-Aug-28 03:34N 36°45' E 012°30'1817.7
2014-Aug-28 02:34N 36°52' E 012°10'1817.5
2014-Aug-28 01:33N 37°00' E 011°50'2617.9
2014-Aug-28 00:05N 37°15' E 011°23'1717.5
2014-Aug-27 23:07N 37°24' E 011°05'1017.4
2014-Aug-27 22:33N 37°27' E 010°53'1717.4
2014-Aug-27 21:33N 37°31' E 010°32'1817.7
2014-Aug-27 20:34N 37°34' E 010°10'1817.9
2014-Aug-27 19:34N 37°32' E 009°48'1817.9
2014-Aug-27 18:34N 37°27' E 009°26'1817.9
2014-Aug-27 17:34N 37°23' E 009°04'1817.9
2014-Aug-27 16:33N 37°18' E 008°42'1817.7
2014-Aug-27 15:33N 37°16' E 008°20'1817.9
2014-Aug-27 14:33N 37°16' E 007°58'1717.2
2014-Aug-27 13:33N 37°16' E 007°36'1717.4
2014-Aug-27 12:33N 37°16' E 007°14'1817.9
2014-Aug-27 11:33N 37°16' E 006°51'2118.3
2014-Aug-27 10:25N 37°15' E 006°25'7417.8
2014-Aug-27 06:15N 37°16' E 004°52'1318.3
2014-Aug-27 05:33N 37°15' E 004°36'4518.3
2014-Aug-27 03:07N 37°11' E 003°40'3318.7
2014-Aug-27 01:22N 37°07' E 002°60'1519.1
2014-Aug-27 00:33N 37°04' E 002°40'1918.6
2014-Aug-26 23:33N 37°01' E 002°17'1818.2
2014-Aug-26 22:33N 36°57' E 001°55'1818.3
2014-Aug-26 21:34N 36°54' E 001°33'1818.3
2014-Aug-26 20:33N 36°51' E 001°10'1918.7
2014-Aug-26 19:33N 36°47' E 000°47'1918.8
2014-Aug-26 18:33N 36°42' E 000°24'1818.1
2014-Aug-26 17:32N 36°41' E 000°02'1818.2
2014-Aug-26 16:33N 36°38' W 000°20'1818.2
2014-Aug-26 15:33N 36°34' W 000°43'1818.2
2014-Aug-26 14:33N 36°31' W 001°05'1818.4
2014-Aug-26 13:33N 36°27' W 001°28'1918.4
2014-Aug-26 12:32N 36°24' W 001°50'16719.6
2014-Aug-26 04:03N 35°59' W 005°15'8618.2
2014-Aug-25 23:18N 35°24' W 006°52'1318.1
2014-Aug-25 22:34N 35°15' W 007°04'16518.3
2014-Aug-25 13:33N 33°18' W 009°24'13118.3
2014-Aug-25 06:24N 31°44' W 011°13'  

Dump ship's entire track history